Le nostre stazioni meteo in Italia

Pubblicità
Il mio iltempo24.it
Lyon/Satolas, Francia (7481): Temperatura & dewpoint: 19.05.2019 08:00:00 - 25.05.2019 08:00:00 (CEST)Lyon/Satolas, Francia (7481): Temperatura 5cm: 19.05.2019 08:00:00 - 25.05.2019 08:00:00 (CEST)Lyon/Satolas, Francia (7481): Temperatura -20cm & Temperatura -100cm: 19.05.2019 08:00:00 - 25.05.2019 08:00:00 (CEST)Lyon/Satolas, Francia (7481): velocità del vento & gusts: 19.05.2019 08:00:00 - 25.05.2019 08:00:00 (CEST)Lyon/Satolas, Francia (7481): direzione del vento: 19.05.2019 08:00:00 - 25.05.2019 08:00:00 (CEST)Lyon/Satolas, Francia (7481): reduced air pressure: 19.05.2019 08:00:00 - 25.05.2019 08:00:00 (CEST)Lyon/Satolas, Francia (7481): visibility: 19.05.2019 08:00:00 - 25.05.2019 08:00:00 (CEST)Lyon/Satolas, Francia (7481): precipitazioni: 19.05.2019 08:00:00 - 25.05.2019 08:00:00 (CEST)
Data & Tempo tt [°C] td [°C] tt 5cm [°C] tt -20cm [°C] tt -100cm [°C] ff [km/h] ff [kn] fx [km/h] fx [kn] dd ppp [hPa] vv [km] rr [mm]
25.05.2019 08:00:00 16,0 10,7 - - - 15 8 21 11 NNO 1015,7 40 -
25.05.2019 07:00:00 14,2 10,0 11,3 18,5 15,0 8 5 13 7 NNO 1015,5 40 0,0
25.05.2019 06:00:00 14,5 9,9 10,9 18,7 14,9 6 3 11 6 N 1015,1 40 0,0
25.05.2019 05:00:00 14,0 9,8 11,2 19,0 14,9 5 3 16 9 N 1014,6 40 0,0
25.05.2019 04:00:00 14,9 9,7 12,7 19,3 14,9 10 5 22 12 NNO 1014,4 36 0,0
25.05.2019 03:00:00 15,1 9,7 12,4 19,5 14,9 11 6 20 11 NNO 1014,3 40 0,0
25.05.2019 02:00:00 15,8 9,5 13,2 19,8 14,8 14 7 21 11 NNO 1014,4 40 0,0
25.05.2019 01:00:00 17,0 9,4 14,9 20,1 14,8 15 8 27 15 NNO 1014,3 40 0,0
25.05.2019 00:00:00 18,1 10,0 16,4 20,4 14,8 17 9 26 14 NNO 1014,1 41 0,0
24.05.2019 23:00:00 18,6 10,7 16,9 20,7 14,8 16 9 25 14 NNO 1013,7 40 0,0
24.05.2019 22:00:00 19,5 10,2 17,5 20,9 14,8 14 8 21 12 NNO 1013,2 43 0,0
24.05.2019 21:00:00 21,5 8,4 19,7 21,2 14,8 15 8 32 17 N 1012,6 40 0,0
24.05.2019 20:00:00 22,9 7,0 22,7 21,3 14,8 21 11 30 16 N 1011,8 12 0,0
24.05.2019 19:00:00 23,7 6,9 26,4 21,2 14,8 19 11 34 18 N 1011,7 40 0,0
24.05.2019 18:00:00 23,9 7,5 28,9 20,9 14,8 22 12 36 20 N 1011,9 40 0,0
24.05.2019 17:00:00 24,1 7,3 31,4 20,4 14,7 19 10 35 19 N 1012,1 40 0,0
24.05.2019 16:00:00 24,2 8,2 31,3 19,8 14,7 18 10 32 17 N 1012,5 40 0,0
24.05.2019 15:00:00 23,6 7,2 30,2 19,2 14,7 14 7 34 18 N 1013,1 40 0,0
24.05.2019 14:00:00 23,2 7,3 29,1 18,5 14,7 13 7 26 14 N 1013,6 40 0,0
24.05.2019 13:00:00 22,9 6,6 32,2 17,9 14,7 14 7 26 14 N 1013,9 40 0,0
24.05.2019 12:00:00 21,6 9,2 28,6 17,5 14,6 8 5 19 10 N 1014,5 40 0,0
24.05.2019 11:00:00 19,9 9,7 28,2 17,2 14,7 7 4 19 10 NO 1015,0 35 0,0
24.05.2019 10:00:00 18,3 8,8 25,8 17,0 14,6 5 3 12 7 NNO 1015,1 35 0,0
24.05.2019 09:00:00 16,6 9,3 19,5 17,0 14,6 4 2 8 5 NO 1015,2 40 0,0
24.05.2019 08:00:00 14,9 8,1 14,9 17,1 14,6 4 2 8 5 SSO 1015,4 35 0,0
24.05.2019 07:00:00 13,1 8,4 10,6 17,3 14,6 6 4 11 6 SSE 1015,4 35 0,0
24.05.2019 06:00:00 13,2 8,1 10,0 17,5 14,6 6 3 8 4 SSE 1015,0 35 0,0
24.05.2019 05:00:00 13,5 7,9 8,3 17,8 14,6 5 3 9 5 SSE 1014,9 35 0,0
24.05.2019 04:00:00 13,2 8,1 8,2 18,1 14,6 2 1 4 2 SE 1015,0 35 0,0
24.05.2019 03:00:00 14,1 7,8 10,1 18,4 14,6 5 3 12 7 OSO 1015,1 35 0,0
24.05.2019 02:00:00 14,7 8,0 11,0 18,6 14,5 7 4 9 5 SO 1015,3 35 0,0
24.05.2019 01:00:00 15,5 7,3 10,1 19,0 14,5 4 2 12 6 OSO 1015,3 50 0,0
24.05.2019 00:00:00 16,3 6,7 10,0 19,3 14,5 0 0 5 3 N 1015,3 50 0,0
23.05.2019 23:00:00 17,3 6,8 11,2 19,7 14,5 2 1 7 4 N 1015,4 50 0,0
23.05.2019 22:00:00 18,2 6,4 10,8 20,0 14,5 6 3 11 6 N 1015,2 50 0,0
23.05.2019 21:00:00 20,0 5,2 14,6 20,2 14,5 7 4 16 9 N 1014,7 50 0,0
23.05.2019 20:00:00 22,2 5,2 21,9 20,4 14,5 10 5 16 8 N 1014,3 50 0,0
23.05.2019 19:00:00 23,1 3,6 25,3 20,3 14,5 10 5 19 10 N 1014,1 50 0,0
23.05.2019 18:00:00 23,3 1,0 30,1 20,0 14,5 12 7 24 13 NNE 1014,4 50 0,0
23.05.2019 17:00:00 23,1 4,6 30,3 19,4 14,5 7 4 19 10 NNE 1014,9 50 0,0
23.05.2019 16:00:00 22,3 3,9 30,8 18,7 14,5 5 3 15 8 N 1015,3 50 0,0
23.05.2019 15:00:00 22,0 5,0 32,1 17,9 14,4 8 5 17 9 N 1016,1 50 0,0
23.05.2019 14:00:00 21,0 4,9 31,1 17,1 14,4 5 3 18 10 NNE 1016,5 50 0,0
23.05.2019 13:00:00 20,1 4,9 30,7 16,4 14,4 11 6 22 12 N 1017,2 50 0,0
23.05.2019 12:00:00 18,6 6,7 29,0 15,9 14,4 9 5 16 9 NO 1018,0 50 0,0
23.05.2019 11:00:00 17,1 6,9 25,5 15,5 14,4 6 3 14 8 NNO 1018,2 50 0,0
23.05.2019 10:00:00 14,8 7,3 23,7 15,4 14,4 5 3 11 6 NO 1018,6 50 0,0
23.05.2019 09:00:00 13,5 7,0 21,1 15,3 14,4 0 0 11 6 N 1018,6 50 0,0
23.05.2019 08:00:00 12,3 6,6 16,5 15,5 14,3 3 2 8 4 NNO 1018,5 50 0,0
23.05.2019 07:00:00 9,7 5,7 2,8 15,7 14,3 0 0 5 3 N 1018,6 50 0,0
23.05.2019 06:00:00 8,5 5,6 2,6 16,1 14,3 4 2 10 6 ONO 1018,5 50 0,0
23.05.2019 05:00:00 9,2 5,9 3,1 16,4 14,3 4 2 5 3 O 1018,7 50 0,0
23.05.2019 04:00:00 10,3 6,3 3,6 16,7 14,3 0 0 4 2 N 1018,5 50 0,0
23.05.2019 03:00:00 11,1 6,0 5,0 17,1 14,3 2 1 10 5 O 1018,6 50 0,0
23.05.2019 02:00:00 11,9 6,0 6,3 17,4 14,3 5 3 8 5 ONO 1018,8 50 0,0
23.05.2019 01:00:00 12,6 6,0 6,9 17,7 14,3 5 3 12 6 NO 1018,6 50 0,0
23.05.2019 00:00:00 14,1 6,2 7,8 18,1 14,3 7 4 10 5 NNO 1018,6 50 0,0
22.05.2019 23:00:00 15,3 6,3 11,4 18,4 14,3 8 4 12 7 N 1018,7 50 0,0
22.05.2019 22:00:00 16,3 7,0 13,6 18,7 14,3 9 5 19 11 N 1018,3 50 0,0
22.05.2019 21:00:00 18,6 6,1 16,3 18,9 14,3 13 7 30 16 N 1017,7 40 0,0
22.05.2019 20:00:00 20,0 6,7 21,3 19,0 14,3 20 11 37 20 N 1017,4 30 0,0
22.05.2019 19:00:00 21,1 6,2 23,1 18,9 14,3 27 15 39 21 N 1017,2 30 0,0
22.05.2019 18:00:00 21,3 4,8 26,6 18,7 14,3 24 13 39 21 N 1017,3 30 0,0
22.05.2019 17:00:00 21,5 5,8 27,9 18,3 14,3 25 14 41 22 N 1017,3 30 0,0
22.05.2019 16:00:00 21,6 8,1 28,3 17,6 14,2 24 13 61 33 N 1017,5 30 0,0
22.05.2019 15:00:00 21,0 6,5 27,4 17,0 14,3 28 15 55 30 NNO 1017,6 30 0,0
22.05.2019 14:00:00 20,8 7,4 27,5 16,4 14,2 29 16 48 26 N 1017,8 25 0,0
22.05.2019 13:00:00 20,3 7,6 27,1 15,8 14,2 31 17 46 25 N 1017,7 25 0,0
22.05.2019 12:00:00 19,6 7,7 26,9 15,4 14,2 27 15 42 23 N 1018,0 25 0,0
22.05.2019 11:00:00 18,4 9,5 24,1 15,1 14,2 26 14 37 20 N 1018,0 25 0,0
22.05.2019 10:00:00 16,2 10,1 22,9 14,8 14,2 21 11 29 15 NNO 1018,5 25 0,0
22.05.2019 09:00:00 14,1 9,3 18,5 14,9 14,2 12 6 20 11 NNO 1018,7 25 0,0
22.05.2019 08:00:00 12,3 8,6 13,5 15,0 14,2 10 5 18 10 N 1018,6 25 0,0
22.05.2019 07:00:00 10,6 8,0 6,6 15,2 14,2 9 5 15 8 NNO 1018,6 25 0,0
22.05.2019 06:00:00 9,4 7,5 5,6 15,4 14,2 5 3 16 9 N 1018,2 25 0,0
22.05.2019 05:00:00 10,2 8,1 6,1 15,6 14,2 12 7 17 9 ONO 1017,9 30 0,0
22.05.2019 04:00:00 10,5 8,4 6,9 15,9 14,2 13 7 17 9 NNO 1017,9 30 0,0
22.05.2019 03:00:00 11,0 8,7 7,5 16,2 14,1 4 2 11 6 NO 1017,7 19 0,0
22.05.2019 02:00:00 12,3 9,3 6,9 16,5 14,2 8 4 12 7 NNO 1017,6 25 0,0
22.05.2019 01:00:00 12,5 9,5 7,3 16,7 14,1 3 2 6 3 N 1017,7 19 0,0
22.05.2019 00:00:00 13,8 10,0 9,2 17,0 14,1 5 3 9 5 N 1017,5 30 0,0
21.05.2019 23:00:00 14,4 10,0 8,6 17,3 14,1 7 4 19 10 N 1017,3 20 0,0
21.05.2019 22:00:00 15,3 10,1 11,1 17,5 14,1 10 6 18 10 N 1016,8 30 0,0
21.05.2019 21:00:00 16,7 9,6 15,1 17,8 14,1 16 9 30 16 NNO 1015,9 30 0,0
21.05.2019 20:00:00 18,0 10,1 18,1 17,9 14,1 19 10 35 19 NNO 1015,4 30 0,0
21.05.2019 19:00:00 18,4 9,5 19,4 17,9 14,1 26 14 44 24 NNO 1015,0 30 0,0
21.05.2019 18:00:00 19,7 9,3 24,4 17,6 14,1 32 17 46 25 N 1014,7 30 0,0
21.05.2019 17:00:00 19,1 9,0 24,9 17,2 14,1 34 18 52 28 N 1014,9 12 0,0
21.05.2019 16:00:00 18,9 9,9 25,1 16,8 14,1 27 15 46 25 N 1015,2 25 0,0
21.05.2019 15:00:00 18,2 9,5 22,2 16,3 14,1 28 15 39 21 NNO 1015,3 12 0,0
21.05.2019 14:00:00 17,8 10,9 21,2 15,8 14,1 24 13 40 21 NNO 1015,4 15 0,0
21.05.2019 13:00:00 16,6 10,4 19,2 15,5 14,1 22 12 37 20 N 1015,6 15 0,0
21.05.2019 12:00:00 16,8 10,9 19,1 15,2 14,1 19 10 27 15 N 1015,6 15 0,0
21.05.2019 11:00:00 15,4 11,2 17,5 15,0 14,1 17 9 27 15 N 1015,7 9 0,0
21.05.2019 10:00:00 14,6 11,6 17,1 14,8 14,1 12 6 24 13 NNE 1015,5 10 0,0
21.05.2019 09:00:00 14,0 11,7 14,1 14,8 14,1 8 4 13 7 N 1015,2 8 0,0
21.05.2019 08:00:00 12,7 11,8 12,3 14,9 14,1 5 3 8 4 N 1015,0 7 0,0
21.05.2019 07:00:00 12,4 11,5 11,8 14,9 14,1 0 0 5 3 N 1014,5 6 0,0
21.05.2019 06:00:00 12,4 11,3 11,7 15,0 14,1 0 0 4 2 N 1014,4 7 0,0
21.05.2019 05:00:00 12,4 11,5 12,0 15,0 14,1 0 0 4 2 N 1014,3 7 0,0
21.05.2019 04:00:00 12,6 11,5 12,0 15,1 14,1 4 2 6 3 NNE 1014,1 7 0,0
21.05.2019 03:00:00 12,6 11,5 12,1 15,2 14,1 4 2 10 5 NNO 1014,2 6 0,0
21.05.2019 02:00:00 12,7 11,6 12,1 15,3 14,1 8 5 13 7 N 1014,1 7 0,0
21.05.2019 01:00:00 12,9 11,8 12,3 15,4 14,1 8 4 15 8 NNO 1014,0 7 0,0
21.05.2019 00:00:00 13,1 12,2 12,5 15,5 14,1 10 6 30 16 N 1013,9 8 0,6
20.05.2019 23:00:00 13,7 11,7 13,0 15,6 14,1 9 5 18 10 ONO 1013,4 12 0,0
20.05.2019 22:00:00 14,0 12,0 12,9 15,7 14,1 4 2 14 7 ONO 1012,9 12 0,0
20.05.2019 21:00:00 13,8 11,8 12,9 15,8 14,1 8 4 16 8 NNO 1012,3 12 0,0
20.05.2019 20:00:00 13,9 11,8 12,9 15,9 14,1 9 5 27 15 N 1012,0 20 0,2
20.05.2019 19:00:00 14,4 11,9 13,4 15,9 14,1 9 5 26 14 N 1011,5 20 0,2
20.05.2019 18:00:00 15,6 11,4 15,4 15,8 14,1 15 8 28 15 N 1011,1 30 0,0
20.05.2019 17:00:00 16,5 10,3 18,0 15,7 14,1 21 11 35 19 N 1010,8 30 0,0
20.05.2019 16:00:00 16,7 10,1 18,1 15,5 14,0 23 12 32 17 NO 1010,6 30 0,0
20.05.2019 15:00:00 16,9 11,0 17,7 15,3 14,1 20 11 35 19 NO 1010,3 25 0,0
20.05.2019 14:00:00 16,2 10,9 19,2 15,1 14,0 22 12 30 16 ONO 1010,3 18 0,0
20.05.2019 13:00:00 15,4 11,2 15,2 15,0 14,1 20 11 29 16 ONO 1010,3 25 0,0
20.05.2019 12:00:00 14,6 11,0 15,9 14,8 14,1 22 12 31 17 NO 1009,9 25 0,0
20.05.2019 11:00:00 14,4 11,2 14,1 14,8 14,1 16 9 26 14 NO 1009,7 20 0,0
20.05.2019 10:00:00 13,4 11,6 12,6 14,8 14,1 13 7 21 11 ONO 1009,4 17 0,0
20.05.2019 09:00:00 12,8 11,9 12,3 14,8 14,1 12 7 18 10 ONO 1009,1 13 0,6
20.05.2019 08:00:00 12,6 11,5 12,3 14,8 14,1 14 8 21 12 NNO 1008,7 7 0,4
20.05.2019 07:00:00 13,0 11,1 12,4 14,9 14,0 11 6 17 9 NO 1008,1 11 0,0
20.05.2019 06:00:00 13,0 10,9 12,3 15,0 14,0 10 5 16 8 NO 1007,7 12 0,0
20.05.2019 05:00:00 13,0 10,7 12,3 15,1 14,0 9 5 16 8 NO 1007,4 20 0,0
20.05.2019 04:00:00 13,4 10,7 12,8 15,2 14,0 14 7 22 12 NO 1007,3 35 0,0
20.05.2019 03:00:00 13,6 10,8 12,9 15,3 14,0 12 7 24 13 NO 1007,4 35 0,0
20.05.2019 02:00:00 13,6 10,8 12,3 15,4 14,0 13 7 19 11 NO 1007,3 35 0,0
20.05.2019 01:00:00 13,4 11,3 12,4 15,5 14,0 8 5 17 9 NO 1007,5 35 0,0
20.05.2019 00:00:00 13,7 11,2 12,8 15,5 14,0 7 4 19 10 NO 1007,6 40 0,0
19.05.2019 23:00:00 13,7 10,9 13,2 15,7 14,0 10 5 24 13 NO 1007,5 40 0,0
19.05.2019 22:00:00 14,3 10,5 13,8 15,8 14,0 18 10 28 15 NNO 1007,0 45 0,0
19.05.2019 21:00:00 14,9 10,5 14,3 15,9 14,0 15 8 26 14 NNO 1006,3 49 0,0
19.05.2019 20:00:00 15,4 10,2 15,0 16,0 14,0 13 7 27 15 N 1006,0 50 0,0
19.05.2019 19:00:00 16,0 10,1 15,8 16,0 14,0 13 7 24 13 N 1005,4 50 0,0
19.05.2019 18:00:00 16,0 9,9 15,8 16,0 14,0 13 7 21 11 NNE 1005,3 50 0,0
19.05.2019 17:00:00 16,9 9,6 18,4 15,9 14,0 12 6 18 10 NNO 1004,9 45 0,0
19.05.2019 16:00:00 15,9 10,4 17,2 15,6 13,9 9 5 21 12 N 1005,4 20 0,0
19.05.2019 15:00:00 16,0 10,3 18,1 15,4 14,0 11 6 22 12 ENE 1005,5 35 0,0
19.05.2019 14:00:00 15,5 10,5 19,7 15,2 14,0 14 8 23 12 NNE 1005,9 19 0,0
19.05.2019 13:00:00 14,0 10,4 15,8 15,1 13,9 16 9 24 13 N 1006,3 15 0,0
19.05.2019 12:00:00 12,6 10,5 14,0 15,0 13,9 12 7 23 12 N 1006,6 12 0,0
19.05.2019 11:00:00 12,1 10,0 11,8 15,0 13,9 16 9 24 13 NNO 1006,6 15 0,0
19.05.2019 10:00:00 11,3 10,4 11,5 15,1 13,9 12 7 22 12 N 1006,9 12 0,2
19.05.2019 09:00:00 11,2 10,3 11,2 15,1 13,9 16 8 20 11 N 1006,7 8 0,2
19.05.2019 08:00:00 11,1 10,3 10,7 15,3 13,9 11 6 18 10 NNO 1006,7 12 0,0

tt = Temperatura
td = dewpoint
tt 5cm = Temperatura 5cm
tt -20cm = Temperatura -20cm
tt -100cm = Temperatura -100cm
ff = velocità del vento
fx = gusts
dd = direzione del vento
ppp = reduced air pressure
vv = visibility
rr = precipitazioni

Stazioni seguenti

WeatherPro
AMSI
MeteoEarth